(474416) = 2002 WJ28

Discovered at Palomar on 2002-11-16 by NEAT.

Orbit

Orbit type: Main Belt

Note: WebGL enabled browser required.

epoch2024-03-31.0
epoch JD2460400.5
perihelion date2020-11-15.29623
perihelion JD2459168.79624
argument of perihelion (°)273.05663
ascending node (°)68.90344
inclination (°)20.76087
eccentricity0.2152930
perihelion distance (AU)2.1943760
Tisserand w.r.t. Jupiter3.2
ΔV w.r.t. Earth (km/sec)11.3
semimajor axis (AU)2.7964270
mean anomaly (°)259.60025
mean daily motion (°/day)0.21076520
aphelion distance (AU)3.398
period (years)4.68
P-vector [x]0.89034713
P-vector [y]-0.12191419
P-vector [z]-0.43865580
Q-vector [x]0.31291008
Q-vector [y]0.86371756
Q-vector [z]0.39506867
absolute magnitude16.48
phase slope0.15
uncertainty0
referenceE2024-GD4
observations used146
oppositions13
arc length (days)10194
first opposition used1996
last opposition used2024
residual rms (arc-secs)0.91
perturbers coarse indicatorM-v
perturbers precise indicator003Ek
first observation date used1996-05-12.0
last observation date used2024-04-09.0
computer nameMPCLINUX
JD of orbit computation2457703.116259
perihelion JD uncertainty (days)1.6559E-04
argument of perihelion uncertainty (°)5.1213E-05
ascending node uncertainty (°)2.7728E-05
inclination uncertainty (°)1.4904E-05
eccentricity uncertainty 8.1203E-08
perihelion distance uncertainty (AU)2.2679E-07
Minimum Orbit Intersection Distances (in AU)
for orbit epoch: 2460400.5, reference: E2024-GD4
Mercury1.81318
Venus1.51548
Earth1.30157
Mars0.97561
Jupiter2.31076
Saturn6.10248
Uranus15.2879
Neptune27.136

Observations

135 total observations over interval: 1996 05 12.36375 – 2023 04 11.233868
These data are available for download (format description).

